This is the latest recevied weather packets stored in our database for station/object DB0KE-10. If no packets are shown the sender has not sent any weather packets the latest 10 day(s).
| Time | Temp. | Humidity | Pressure | Rain* | Wind** | Luminosity | Snow |
|---|---|---|---|---|---|---|---|
| 1787887337 | 25° C | 49% | 1018.3 hPa | - | - | - | - |
| 1787886436 | 25° C | 50% | 1018.6 hPa | - | - | - | - |
| 1787885536 | 25° C | 50% | 1018.8 hPa | - | - | - | - |
| 1787884636 | 25.56° C | 50% | 1018.6 hPa | - | - | - | - |
| 1787883736 | 25.56° C | 49% | 1018.6 hPa | - | - | - | - |
| 1787882836 | 25.56° C | 49% | 1018.6 hPa | - | - | - | - |
| 1787881936 | 25.56° C | 50% | 1018.7 hPa | - | - | - | - |
| 1787881036 | 26.11° C | 48% | 1018.8 hPa | - | - | - | - |
| 1787880136 | 26.11° C | 49% | 1018.9 hPa | - | - | - | - |
| 1787879236 | 26.11° C | 48% | 1018.8 hPa | - | - | - | - |
| 1787878336 | 26.67° C | 48% | 1018.8 hPa | - | - | - | - |
| 1787877436 | 26.67° C | 47% | 1019 hPa | - | - | - | - |
| 1787876536 | 27.22° C | 47% | 1019 hPa | - | - | - | - |
| 1787875635 | 27.22° C | 46% | 1018.9 hPa | - | - | - | - |
| 1787874735 | 28.33° C | 45% | 1019 hPa | - | - | - | - |
| 1787873835 | 28.33° C | 45% | 1019.2 hPa | - | - | - | - |
| 1787872935 | 28.33° C | 45% | 1019.2 hPa | - | - | - | - |
| 1787872035 | 28.33° C | 46% | 1019.4 hPa | - | - | - | - |
| 1787871134 | 28.33° C | 45% | 1019.4 hPa | - | - | - | - |
| 1787870234 | 28.33° C | 45% | 1019.4 hPa | - | - | - | - |
| 1787869334 | 28.33° C | 44% | 1019.5 hPa | - | - | - | - |
| 1787868434 | 28.33° C | 44% | 1019.6 hPa | - | - | - | - |
| 1787867534 | 28.33° C | 45% | 1019.7 hPa | - | - | - | - |
| 1787866634 | 28.33° C | 44% | 1019.7 hPa | - | - | - | - |
| 1787865736 | 28.33° C | 44% | 1019.8 hPa | - | - | - | - |
* Rain since midnight (hover to see other rain measurements)
** Current wind speed in m/s (hover to see current wind gust speed)